Location: Boiro
(42.6475°N, 8.8834°W)
Time: 08:01:24
(UTC+01:00)

Explorer 7 - Visible Passes

Search period start: 01 December 2022 00:00
Search period end: 11 December 2022 00:00
Orbit: 481 x 665 km, 50.3° (Epoch: 01 December)

Date Brightness Start Highest point End Pass type
(mag) Time Alt. Az. Time Alt. Az. Time Alt. Az.
01 Dec 6.9 18:30:52 10° NW 18:34:29 47° NNE 18:38:10 10° E visible
01 Dec 8.1 20:11:15 10° WNW 20:14:40 33° SW 20:15:49 27° S visible
02 Dec 6.6 18:32:40 10° NW 18:36:23 66° NNE 18:40:11 10° ESE visible
02 Dec 8.9 20:13:26 10° W 20:16:23 22° SW 20:18:45 13° S visible
03 Dec 6.6 18:34:30 10° WNW 18:38:14 85° SSW 18:42:03 10° SE visible
03 Dec 9.6 20:16:04 10° W 20:18:02 14° SW 20:20:01 10° SSW visible
04 Dec 7.4 18:36:22 10° WNW 18:40:02 55° SW 18:43:45 10° SE visible
05 Dec 8.4 18:38:21 10° WNW 18:41:46 35° SW 18:45:15 10° SSE visible
06 Dec 9.3 18:40:30 10° W 18:43:27 22° SW 18:46:27 10° S visible
07 Dec 9.8 18:43:02 10° W 18:45:05 14° SW 18:47:08 10° SSW visible
